TimeMST,TemperatureF,Dew PointF,Humidity,Sea Level PressureIn,VisibilityMPH,Wind Direction,Wind SpeedMPH,Gust SpeedMPH,PrecipitationIn,Events,Conditions,WindDirDegrees,DateUTC
12:15 AM,59.0,24.8,27,30.07,10.0,NNE,8.1,-,N/A,,Clear,30,2012-11-02 07:15:00
12:35 AM,59.0,24.8,27,30.07,10.0,NE,9.2,-,N/A,,Clear,40,2012-11-02 07:35:00
12:55 AM,59.0,24.8,27,30.07,10.0,NNE,6.9,-,N/A,,Clear,30,2012-11-02 07:55:00
1:15 AM,59.0,24.8,27,30.07,10.0,NNE,6.9,-,N/A,,Clear,20,2012-11-02 08:15:00
1:35 AM,57.2,24.8,29,30.07,10.0,NNE,8.1,-,N/A,,Clear,30,2012-11-02 08:35:00
1:55 AM,59.0,24.8,27,30.07,10.0,NNE,8.1,-,N/A,,Clear,30,2012-11-02 08:55:00
2:15 AM,59.0,24.8,27,30.07,10.0,NE,8.1,-,N/A,,Clear,40,2012-11-02 09:15:00
2:35 AM,57.2,24.8,29,30.06,10.0,NE,8.1,-,N/A,,Clear,40,2012-11-02 09:35:00
2:55 AM,57.2,24.8,29,30.06,10.0,NE,8.1,-,N/A,,Clear,40,2012-11-02 09:55:00
3:15 AM,59.0,24.8,27,30.06,10.0,NNE,8.1,-,N/A,,Clear,30,2012-11-02 10:15:00
3:35 AM,57.2,24.8,29,30.06,10.0,NNE,8.1,-,N/A,,Clear,30,2012-11-02 10:35:00
3:55 AM,57.2,24.8,29,30.06,10.0,NNE,8.1,-,N/A,,Clear,30,2012-11-02 10:55:00
4:15 AM,57.2,24.8,29,30.06,10.0,NE,8.1,-,N/A,,Clear,40,2012-11-02 11:15:00
4:35 AM,59.0,24.8,27,30.06,10.0,NE,10.4,-,N/A,,Clear,40,2012-11-02 11:35:00
4:55 AM,59.0,26.6,29,30.06,10.0,NE,9.2,-,N/A,,Clear,50,2012-11-02 11:55:00
5:15 AM,59.0,26.6,29,30.06,10.0,NE,11.5,-,N/A,,Clear,50,2012-11-02 12:15:00
5:35 AM,59.0,26.6,29,30.06,10.0,NE,10.4,-,N/A,,Clear,50,2012-11-02 12:35:00
5:55 AM,59.0,26.6,29,30.06,10.0,NE,11.5,-,N/A,,Clear,50,2012-11-02 12:55:00
6:15 AM,59.0,26.6,29,30.06,10.0,NE,9.2,-,N/A,,Clear,50,2012-11-02 13:15:00
6:35 AM,57.2,26.6,31,30.06,10.0,NE,11.5,-,N/A,,Clear,40,2012-11-02 13:35:00
6:55 AM,57.2,26.6,31,30.07,10.0,NE,9.2,-,N/A,,Clear,40,2012-11-02 13:55:00
7:15 AM,55.4,26.6,33,30.08,10.0,NE,10.4,-,N/A,,Clear,40,2012-11-02 14:15:00
7:35 AM,57.2,26.6,31,30.09,10.0,NE,9.2,16.1,N/A,,Clear,50,2012-11-02 14:35:00
7:55 AM,59.0,26.6,29,30.10,10.0,NE,10.4,-,N/A,,Clear,50,2012-11-02 14:55:00
8:15 AM,60.8,28.4,29,30.10,10.0,ENE,4.6,-,N/A,,Clear,60,2012-11-02 15:15:00
8:35 AM,62.6,28.4,27,30.10,10.0,East,5.8,-,N/A,,Clear,90,2012-11-02 15:35:00
8:55 AM,62.6,28.4,27,30.11,10.0,East,4.6,-,N/A,,Clear,100,2012-11-02 15:55:00
9:15 AM,62.6,30.2,30,30.11,10.0,Calm,Calm,-,N/A,,Clear,0,2012-11-02 16:15:00
9:35 AM,62.6,28.4,27,30.11,10.0,Calm,Calm,-,N/A,,Clear,0,2012-11-02 16:35:00
9:55 AM,66.2,30.2,26,30.12,10.0,SSE,3.5,-,N/A,,Clear,160,2012-11-02 16:55:00
10:15 AM,68.0,30.2,24,30.12,10.0,Calm,Calm,-,N/A,,Clear,0,2012-11-02 17:15:00
10:35 AM,69.8,30.2,23,30.12,10.0,Calm,Calm,-,N/A,,Clear,0,2012-11-02 17:35:00
10:55 AM,69.8,30.2,23,30.12,10.0,SSE,3.5,-,N/A,,Clear,160,2012-11-02 17:55:00
11:15 AM,71.6,30.2,22,30.11,10.0,SE,5.8,-,N/A,,Clear,140,2012-11-02 18:15:00
11:35 AM,73.4,30.2,20,30.10,10.0,South,5.8,-,N/A,,Clear,170,2012-11-02 18:35:00
11:55 AM,71.6,30.2,22,30.10,10.0,SSW,6.9,-,N/A,,Clear,210,2012-11-02 18:55:00
12:15 PM,73.4,30.2,20,30.09,10.0,South,5.8,17.3,N/A,,Clear,190,2012-11-02 19:15:00
12:35 PM,73.4,30.2,20,30.08,10.0,SW,5.8,-,N/A,,Clear,230,2012-11-02 19:35:00
12:55 PM,77.0,30.2,18,30.07,10.0,SSE,13.8,19.6,N/A,,Clear,150,2012-11-02 19:55:00
1:15 PM,77.0,30.2,18,30.06,10.0,SSW,8.1,20.7,N/A,,Clear,200,2012-11-02 20:15:00
1:35 PM,73.4,30.2,20,30.06,10.0,South,13.8,19.6,N/A,,Clear,170,2012-11-02 20:35:00
1:55 PM,75.2,30.2,19,30.05,10.0,South,11.5,-,N/A,,Clear,170,2012-11-02 20:55:00
2:15 PM,75.2,30.2,19,30.05,10.0,SSW,8.1,24.2,N/A,,Clear,200,2012-11-02 21:15:00
2:35 PM,73.4,28.4,19,30.04,10.0,Calm,Calm,-,N/A,,Clear,0,2012-11-02 21:35:00
2:55 PM,75.2,30.2,19,30.04,10.0,SW,5.8,-,N/A,,Clear,230,2012-11-02 21:55:00
3:15 PM,73.4,30.2,20,30.04,10.0,SSE,10.4,-,N/A,,Clear,160,2012-11-02 22:15:00
3:35 PM,73.4,28.4,19,30.04,10.0,SSW,3.5,-,N/A,,Clear,200,2012-11-02 22:35:00
3:55 PM,73.4,28.4,19,30.04,10.0,SSE,12.7,-,N/A,,Clear,160,2012-11-02 22:55:00
4:15 PM,71.6,28.4,20,30.04,10.0,SE,6.9,-,N/A,,Clear,140,2012-11-02 23:15:00
4:35 PM,71.6,28.4,20,30.04,10.0,SW,3.5,-,N/A,,Clear,220,2012-11-02 23:35:00
4:55 PM,69.8,28.4,21,30.04,10.0,South,3.5,-,N/A,,Clear,180,2012-11-02 23:55:00
5:15 PM,69.8,28.4,21,30.04,10.0,Calm,Calm,-,N/A,,Clear,0,2012-11-03 00:15:00
5:35 PM,68.0,28.4,23,30.05,10.0,SSE,3.5,-,N/A,,Clear,160,2012-11-03 00:35:00
5:55 PM,68.0,28.4,23,30.05,10.0,Calm,Calm,-,N/A,,Clear,0,2012-11-03 00:55:00
6:15 PM,66.2,28.4,24,30.06,10.0,Calm,Calm,-,N/A,,Clear,0,2012-11-03 01:15:00
6:35 PM,64.4,30.2,28,30.06,10.0,SSW,3.5,-,N/A,,Clear,210,2012-11-03 01:35:00
6:55 PM,64.4,30.2,28,30.06,10.0,Calm,Calm,-,N/A,,Clear,0,2012-11-03 01:55:00
7:15 PM,66.2,30.2,26,30.07,10.0,Calm,Calm,-,N/A,,Clear,0,2012-11-03 02:15:00
7:35 PM,64.4,30.2,28,30.07,10.0,Calm,Calm,-,N/A,,Clear,0,2012-11-03 02:35:00
7:55 PM,64.4,30.2,28,30.07,10.0,Calm,Calm,-,N/A,,Clear,0,2012-11-03 02:55:00
8:15 PM,62.6,30.2,30,30.08,10.0,Calm,Calm,-,N/A,,Clear,0,2012-11-03 03:15:00
8:35 PM,60.8,30.2,31,30.09,10.0,NE,4.6,-,N/A,,Clear,40,2012-11-03 03:35:00
8:55 PM,60.8,30.2,31,30.09,10.0,NE,5.8,-,N/A,,Clear,40,2012-11-03 03:55:00
9:15 PM,60.8,30.2,31,30.10,10.0,ENE,5.8,-,N/A,,Clear,70,2012-11-03 04:15:00
9:35 PM,59.0,30.2,34,30.10,10.0,East,3.5,-,N/A,,Clear,80,2012-11-03 04:35:00
9:55 PM,60.8,30.2,31,30.10,10.0,ENE,4.6,-,N/A,,Clear,60,2012-11-03 04:55:00
10:15 PM,59.0,30.2,34,30.10,10.0,NE,5.8,-,N/A,,Clear,40,2012-11-03 05:15:00
10:35 PM,59.0,30.2,34,30.10,10.0,NNE,8.1,-,N/A,,Clear,30,2012-11-03 05:35:00
10:55 PM,57.2,30.2,36,30.10,10.0,NNE,9.2,-,N/A,,Clear,30,2012-11-03 05:55:00
11:15 PM,57.2,30.2,36,30.11,10.0,NNE,11.5,-,N/A,,Clear,30,2012-11-03 06:15:00
11:35 PM,57.2,30.2,36,30.11,10.0,NE,11.5,-,N/A,,Clear,40,2012-11-03 06:35:00
11:55 PM,55.4,30.2,38,30.11,10.0,NE,11.5,-,N/A,,Clear,40,2012-11-03 06:55:00